Flag Weather past 2 weeks in Orlando, Florida, U.S.A.

Now
66 °F

Overcast.


Feels Like: 66 °F
Forecast: 63 / 75 °F
Wind: 6 mph from Northeast

Location: Orlando Executive Airport

Current Time: Nov 21, 2014 at 10:27:03 PM

Latest Report: Nov 21, 2014 at 9:53 PM


Visibility: 10 mi

Pressure: 30.29 "Hg

Humidity: 73%

Dew point: 57 °F

Location of OrlandoLocation

Historic Weather in Orlando — Graph

°F

Orlando temperature yesterday

Maximum temperature yesterday: 66 °F (at 2:53 PM)
Minimum temperature yesterday: 46 °F (at 4:53 AM)
Average temperature yesterday: 55 °F

Past Weeks' High & Low Weather Summary

 TemperatureHumidityPressure
High83 °F (Nov 17, 12:53 PM)97% (Nov 7, 2:53 AM)30.39 "Hg (Nov 7, 2:53 AM)
Low41 °F (Nov 19, 3:53 AM)30% (Nov 13, 4:53 PM)29.86 "Hg (Nov 8, 1:53 PM)
Average64 °F73%30.07 "Hg
* Reported Nov 6 8:53 PM — Nov 21 8:53 PM, Orlando, Weather by CustomWeather, © 2014

Note: Actual official high and low records may vary slightly from our data, if they occured in-between our weather recording intervals... More about our weather records

Advertising

Orlando weather history for previous 24 hours

 ConditionsComfort  
Time TempWeatherWind HumidityBarometerVisibility
8:53 PM
Nov 21
66 °FOvercast.7 mph73%30.29 "Hg10 mi
7:53 PM67 °FMostly cloudy.9 mph68%30.28 "Hg10 mi
6:53 PM67 °FMostly cloudy.9 mph66%30.28 "Hg10 mi
5:53 PM67 °FPassing clouds.10 mph68%30.28 "Hg10 mi
4:53 PM69 °FSunny.16 mph63%30.27 "Hg10 mi
3:53 PM71 °FPartly sunny.15 mph57%30.26 "Hg10 mi
2:53 PM72 °FPartly sunny.14 mph53%30.25 "Hg10 mi
1:53 PM74 °FSunny.12 mph46%30.25 "Hg10 mi
12:53 PM74 °FSunny.17 mph46%30.27 "Hg10 mi
11:53 AM73 °FSunny.13 mph46%30.29 "Hg10 mi
10:53 AM69 °FScattered clouds.9 mph57%30.30 "Hg10 mi
9:53 AM65 °FPassing clouds.10 mph59%30.32 "Hg10 mi
8:53 AM62 °FPassing clouds.12 mph58%30.31 "Hg10 mi
7:53 AM57 °FSunny.12 mph62%30.29 "Hg10 mi
6:53 AM55 °FSunny.10 mph62%30.27 "Hg10 mi
5:53 AM56 °FClear.8 mph60%30.25 "Hg10 mi
4:53 AM56 °FClear.9 mph65%30.24 "Hg10 mi
3:53 AM56 °FClear.9 mph65%30.23 "Hg10 mi
2:53 AM57 °FClear.10 mph62%30.23 "Hg10 mi
1:53 AM56 °FClear.10 mph67%30.23 "Hg10 mi
12:53 AM56 °FClear.7 mph65%30.23 "Hg10 mi
11:53 PM
Nov 20
56 °FClear.8 mph65%30.25 "Hg10 mi
10:53 PM56 °FClear.7 mph62%30.25 "Hg10 mi
Weather by CustomWeather, © 2014

See weather overviewHow to use our weather pages